• Join FlightAware (Why Join?)
  • Login
  • US Flag 
09:20AM EDT


 

Airport Tracker/Info


-or-


 

Live Flight TrackerFlight Track Log ✈ DAL268 ✈ 12-Jul-2013 ✈ KJFK - LLBG / TLV

Flight Track Log - Related Links

Times and Time Zones

All times are in EDT time to prevent confusion due to time zone crossing. See the DAL268 flight status page for this flight to view local times or setup timezone preferences in your user account.

Time Position Orientation Groundspeed Altitude Reporting Facility
EDT Latitude Longitude Course Direction KTS MPH feet Rate Location/Type
11:53PM 40.6370 -73.7800 North  Level FlightAware
11:54PM 40.6370 -73.7790 90° East 11 13  Level FlightAware
11:54PM 40.6380 -73.7790 360° North 12 14  Level FlightAware
11:57PM 40.8812 -73.5522 37° Northeast  Level FlightAware Approximate
11:58PM 40.9869 -73.4510 30° Northeast  Level FlightAware Approximate
11:59PM 41.1039 -73.3599 30° Northeast  Level FlightAware Approximate
12:00AM 41.2183 -73.2655 29° Northeast  Level FlightAware Approximate
12:00AM 40.6360 -73.7790 29° Northeast 19 22  Level FlightAware
12:00AM 40.6350 -73.7780 143° Southeast 12 14  Level FlightAware
12:01AM 40.6330 -73.7800 217° Southwest 27 31  Level FlightAware
12:02AM 40.6310 -73.7800 180° South 26 30  Level FlightAware
12:03AM 40.6280 -73.7820 207° Southwest 29 33  Level FlightAware
12:04AM 40.6270 -73.7840 237° Southwest 21 24  Level FlightAware
12:04AM 40.6260 -73.7840 180° South 20 23  Level FlightAware
12:05AM 40.6250 -73.7850 217° Southwest 12 14  Level FlightAware
12:06AM 40.6240 -73.7860 217° Southwest 9 10  Level FlightAware
12:09AM 40.8715 -73.5618 37° Northeast  Level FlightAware Approximate
12:09AM 40.6230 -73.7870 37° Northeast 9 10  Level FlightAware
12:10AM 40.6230 -73.7850 90° East 15 17 120 Level FlightAware
12:11AM 40.6250 -73.7830 37° Northeast 67 77 240 Level FlightAware
12:11AM 40.6320 -73.7780 28° Northeast 130 150 420 Level FlightAware
12:12AM 40.6480 -73.7650 32° Northeast 181 208 300 1,440 Climbing FlightAware
12:12AM 40.6660 -73.7500 32° Northeast 177 204 1,200 1,740 Climbing FlightAware
12:12AM 40.6700 -73.7380 66° East 187 215 1,400 1,020 Climbing FlightAware
12:13AM 40.6740 -73.7040 81° East 219 252 1,900 1,140 Climbing FlightAware
12:13AM 40.6780 -73.6620 83° East 246 283 2,500 1,080 Climbing FlightAware
12:13AM 40.6860 -73.6400 64° Northeast 273 314 2,700 1,620 Climbing FlightAware
12:14AM 40.7110 -73.6080 44° Northeast 291 335 3,700 2,280 Climbing FlightAware
12:14AM 40.7230 -73.5940 41° Northeast 295 339 4,200 2,520 Climbing FlightAware
12:14AM 40.7520 -73.5580 43° Northeast 302 348 5,400 2,580 Climbing FlightAware
12:15AM 40.7620 -73.5450 45° Northeast 306 352 5,800 2,340 Climbing FlightAware
12:15AM 40.7940 -73.5110 39° Northeast 319 367 6,900 2,340 Climbing FlightAware
12:15AM 40.8250 -73.4890 28° Northeast 326 375 7,900 2,520 Climbing FlightAware
12:16AM 40.8710 -73.4610 25° Northeast 332 382 9,300 2,100 Climbing FlightAware
12:17AM 40.9290 -73.4250 25° Northeast 354 407 10,500 1,560 Climbing FlightAware
12:17AM 40.9960 -73.3830 25° Northeast 389 448 11,500 1,320 Climbing FlightAware
12:18AM 41.0630 -73.3320 30° Northeast 420 483 12,400 1,800 Climbing FlightAware
12:19AM 41.1570 -73.2260 40° Northeast 436 502 14,600 2,040 Climbing FlightAware
12:20AM 41.2200 -73.1550 40° Northeast 445 512 16,000 1,980 Climbing FlightAware
12:20AM 41.2820 -73.0830 41° Northeast 452 520 17,300 1,500 Climbing FlightAware
12:21AM 41.3660 -72.9880 40° Northeast 455 524 18,400 600 Climbing FlightAware
12:22AM 41.4310 -72.9140 40° Northeast 455 524 18,400  Level FlightAware
12:23AM 41.4810 -72.8590 39° Northeast 455 524 18,400  Level FlightAware
12:24AM 41.5480 -72.7840 40° Northeast 455 524 18,400  Level FlightAware
12:24AM 41.6140 -72.7100 40° Northeast 455 524 18,400 1,860 Level FlightAware
12:30AM 42.2680 -71.9570 40° Northeast 528 608 30,400 2,040 Climbing FlightAware
12:30AM 42.3360 -71.8800 40° Northeast 528 608 31,000 480 Climbing FlightAware
12:31AM 42.4100 -71.7930 41° Northeast 521 600 31,000  Level FlightAware
12:32AM 42.4830 -71.7070 41° Northeast 520 598 31,000  Level FlightAware
12:32AM 42.5570 -71.6200 41° Northeast 522 601 31,000  Level FlightAware
12:33AM 42.6310 -71.5330 41° Northeast 530 610 31,000  Level FlightAware
12:34AM 42.7050 -71.4450 41° Northeast 533 613 31,000  Level FlightAware
12:34AM 42.7750 -71.3610 41° Northeast 534 615 31,000 -120 Level FlightAware
12:35AM 42.8620 -71.2570 41° Northeast 532 612 30,900  Descending FlightAware
12:36AM 42.9420 -71.1620 41° Northeast 531 611 31,000 60 Climbing FlightAware
12:37AM 43.0220 -71.0640 42° Northeast 529 609 31,000  Level FlightAware
12:37AM 43.0960 -70.9760 41° Northeast 528 608 31,000  Level FlightAware
12:38AM 43.1660 -70.8920 41° Northeast 527 606 31,000  Level FlightAware
12:39AM 43.2370 -70.8050 42° Northeast 527 606 31,000  Level FlightAware
12:39AM 43.3190 -70.7050 42° Northeast 525 604 31,000  Level FlightAware
12:40AM 43.3750 -70.6370 41° Northeast 525 604 31,000  Level FlightAware
12:41AM 43.4560 -70.5370 42° Northeast 526 605 31,000  Level FlightAware
12:41AM 43.5280 -70.4490 42° Northeast 526 605 31,000  Level FlightAware
12:42AM 43.5980 -70.3620 42° Northeast 526 605 31,000  Level FlightAware
12:43AM 43.6820 -70.2590 42° Northeast 526 605 31,000  Level FlightAware
12:43AM 43.7550 -70.1670 42° Northeast 526 605 31,000  Level FlightAware
12:44AM 43.8370 -70.0650 42° Northeast 527 606 31,000  Level FlightAware
12:45AM 43.8940 -69.9950 41° Northeast 528 608 31,000  Level FlightAware
12:45AM 43.9640 -69.9060 42° Northeast 529 609 31,000  Level FlightAware
12:46AM 44.0500 -69.7990 42° Northeast 529 609 31,000  Level FlightAware
12:47AM 44.1160 -69.7140 43° Northeast 529 609 31,000  Level FlightAware
12:47AM 44.1880 -69.6220 42° Northeast 530 610 31,000  Level FlightAware
12:48AM 44.2690 -69.5180 43° Northeast 531 611 31,000  Level FlightAware
12:49AM 44.3390 -69.4310 42° Northeast 531 611 31,000  Level FlightAware
12:50AM 44.4190 -69.3290 42° Northeast 531 611 31,000  Level FlightAware
12:50AM 44.4940 -69.2350 42° Northeast 531 611 31,000  Level FlightAware
12:51AM 44.5490 -69.1640 43° Northeast 531 611 31,000 1,200 Level FlightAware
12:52AM 44.6850 -68.9840 43° Northeast 534 615 33,000 960 Climbing FlightAware
12:53AM 44.7860 -68.8530 43° Northeast 533 613 32,900  Descending FlightAware
12:54AM 44.8750 -68.7340 43° Northeast 533 613 33,000 60 Climbing FlightAware
12:54AM 44.9480 -68.6400 42° Northeast 534 615 33,000  Level FlightAware
12:55AM 45.0290 -68.5320 43° Northeast 536 617 33,000  Level FlightAware
12:56AM 45.0990 -68.4380 43° Northeast 536 617 33,000 -120 Level FlightAware
12:56AM 45.1800 -68.3300 43° Northeast 537 618 32,900 -120 Descending FlightAware
12:57AM 45.2440 -68.2450 43° Northeast 537 618 32,900  Level FlightAware
12:58AM 45.3280 -68.1310 44° Northeast 535 616 32,900  Level FlightAware
12:58AM 45.3890 -68.0490 43° Northeast 535 616 32,900 60 Level FlightAware
12:59AM 45.4620 -67.9500 44° Northeast 533 613 33,000  Climbing FlightAware
01:00AM 45.5420 -67.8430 43° Northeast 534 615 32,900  Descending FlightAware
01:00AM 45.6040 -67.7580 44° Northeast 534 615 33,000 60 Climbing FlightAware
01:01AM 45.6740 -67.6630 43° Northeast 534 615 33,000  Level FlightAware
01:02AM 45.7460 -67.5630 44° Northeast 535 616 33,000  Level FlightAware
01:02AM 45.8190 -67.4640 43° Northeast 536 617 33,000  Level FlightAware
01:03AM 45.8890 -67.3680 44° Northeast 538 619 33,000  Level FlightAware
01:04AM 45.9630 -67.2630 45° Northeast 541 623 33,000  Level FlightAware
01:05AM 46.0570 -67.1330 44° Northeast 543 625 33,000  Level FlightAware
01:06AM 46.1690 -66.9760 44° Northeast 545 627 33,000  Level FlightAware
01:07AM 46.2650 -66.8390 45° Northeast 545 627 33,000  Level FlightAware
01:07AM 46.3210 -66.7610 44° Northeast 545 627 33,000  Level FlightAware
01:08AM 46.3760 -66.6830 44° Northeast 545 627 33,000  Level FlightAware
01:08AM 46.4330 -66.6030 44° Northeast 545 627 33,000  Level FlightAware
01:09AM 46.5070 -66.5000 44° Northeast 545 627 33,000  Level FlightAware
01:10AM 46.5630 -66.4220 44° Northeast 545 627 33,000  Level FlightAware
01:11AM 46.6200 -66.3420 44° Northeast 545 627 33,000  Level FlightAware
01:11AM 46.6890 -66.2440 44° Northeast 545 627 33,000  Level FlightAware
01:12AM 46.7630 -66.1400 44° Northeast 545 627 33,000  Level FlightAware
01:13AM 46.8200 -66.0590 44° Northeast 545 627 33,000  Level FlightAware
01:13AM 46.8760 -65.9810 44° Northeast 545 627 33,000  Level FlightAware
01:14AM 46.9500 -65.8760 44° Northeast 545 627 33,000  Level FlightAware
01:15AM 47.0050 -65.7980 44° Northeast 545 627 33,000  Level FlightAware
01:15AM 47.0610 -65.7190 44° Northeast 545 627 33,000  Level FlightAware
01:16AM 47.1360 -65.6120 44° Northeast 545 627 33,000 -120 Level FlightAware
01:17AM 47.3000 -65.3000 44° Northeast 510 587 32,900  Descending Gander Center
01:18AM 47.4167 -65.1500 41° Northeast 520 598 33,000  Climbing Gander Center
01:19AM 47.5167 -65.0000 45° Northeast 520 598 32,900 -60 Descending Gander Center
01:20AM 47.6000 -64.8500 50° Northeast 510 587 32,900  Level Moncton Center
01:20AM 47.6000 -64.8500 50° Northeast 520 598 32,900  Level Gander Center
01:21AM 47.7000 -64.7000 45° Northeast 510 587 32,900  Level Moncton Center
01:22AM 47.8000 -64.5500 45° Northeast 510 587 32,900  Level Moncton Center
01:23AM 47.9000 -64.4000 45° Northeast 510 587 32,900  Level Moncton Center
01:24AM 48.0000 -64.2500 45° Northeast 510 587 32,900  Level Moncton Center
01:25AM 48.1000 -64.0667 51° Northeast 510 587 32,900  Level Moncton Center
01:26AM 48.1833 -63.9500 43° Northeast 510 587 32,900  Level Moncton Center
01:27AM 48.2833 -63.7667 51° Northeast 500 575 32,900  Level Moncton Center
01:28AM 48.3833 -63.6167 45° Northeast 510 587 32,900  Level Moncton Center
01:29AM 48.4833 -63.4667 45° Northeast 500 575 32,900  Level Moncton Center
01:30AM 48.5833 -63.3167 45° Northeast 500 575 32,900  Level Moncton Center
01:31AM 48.6667 -63.1500 53° Northeast 500 575 32,900  Level Gander Center
01:32AM 48.7667 -63.0000 45° Northeast 500 575 32,900  Level Gander Center
01:33AM 48.8500 -62.8500 50° Northeast 490 564 32,900  Level Gander Center
01:34AM 48.9500 -62.7000 45° Northeast 490 564 32,900  Level Gander Center
01:35AM 49.0500 -62.5333 47° Northeast 490 564 32,900  Level Gander Center
01:36AM 49.1333 -62.3833 50° Northeast 490 564 32,900  Level Gander Center
01:37AM 49.2333 -62.2333 44° Northeast 490 564 32,900  Level Gander Center
01:38AM 49.3167 -62.0833 50° Northeast 480 552 32,900  Level Moncton Center
01:38AM 49.3167 -62.0833 50° Northeast 490 564 32,900  Level Gander Center
01:39AM 49.4000 -61.9333 49° Northeast 480 552 32,900  Level Moncton Center
01:40AM 49.5000 -61.7667 47° Northeast 490 564 32,900  Level Moncton Center
01:41AM 49.5833 -61.6167 49° Northeast 490 564 32,900  Level Gander Center
01:42AM 49.6833 -61.4333 50° Northeast 500 575 32,900  Level Gander Center
01:43AM 49.7667 -61.2833 49° Northeast 500 575 32,900  Level Gander Center
01:44AM 49.8667 -61.1333 44° Northeast 500 575 32,900  Level Gander Center
01:45AM 49.9667 -60.9667 47° Northeast 500 575 32,900  Level Gander Center
01:46AM 50.0500 -60.7833 55° Northeast 510 587 32,900  Level Gander Center
01:47AM 50.1500 -60.6333 44° Northeast 510 587 32,900  Level Gander Center
01:48AM 50.2500 -60.4667 47° Northeast 500 575 32,900  Level Gander Center
01:49AM 50.3333 -60.2833 54° Northeast 510 587 32,900  Level Gander Center
01:50AM 50.4167 -60.1333 49° Northeast 510 587 32,900  Level Gander Center
01:51AM 50.5167 -59.9667 47° Northeast 510 587 32,900  Level Gander Center
01:52AM 50.6167 -59.7833 49° Northeast 520 598 32,900  Level Gander Center
01:53AM 50.7167 -59.6167 47° Northeast 510 587 32,900  Level Gander Center
01:54AM 50.7833 -59.4500 58° Northeast 510 587 32,900  Level Gander Center
01:55AM 50.8833 -59.2667 49° Northeast 510 587 32,900  Level Gander Center
01:56AM 50.9667 -59.0833 54° Northeast 510 587 32,900  Level Gander Center
01:57AM 51.0500 -58.9167 51° Northeast 510 587 32,900  Level Gander Center
01:58AM 51.1333 -58.7167 56° Northeast 520 598 32,900  Level Gander Center
01:59AM 51.2167 -58.5333 54° Northeast 510 587 32,900  Level Gander Center
02:00AM 51.3000 -58.3667 51° Northeast 510 587 32,900  Level Gander Center
02:01AM 51.3833 -58.1667 56° Northeast 510 587 32,900  Level Gander Center
02:02AM 51.4667 -57.9833 54° Northeast 520 598 32,900  Level Gander Center
02:03AM 51.5500 -57.7833 56° Northeast 520 598 32,900  Level Gander Center
02:04AM 51.6333 -57.6167 51° Northeast 520 598 32,900  Level Gander Center
02:05AM 51.7167 -57.4167 56° Northeast 530 610 32,900  Level Gander Center
02:06AM 51.8000 -57.2000 58° Northeast 520 598 32,900  Level Gander Center
02:07AM 51.8833 -57.0333 51° Northeast 520 598 32,900  Level Gander Center
02:08AM 51.9667 -56.8000 60° Northeast 530 610 32,900  Level Gander Center
02:09AM 52.0500 -56.6333 51° Northeast 530 610 32,900  Level Gander Center
02:10AM 52.1500 -56.4333 51° Northeast 530 610 32,900  Level Gander Center
02:11AM 52.2167 -56.2333 61° Northeast 530 610 32,900  Level Gander Center
02:12AM 52.3167 -56.0000 55° Northeast 540 621 32,900  Level Gander Center
02:13AM 52.3833 -55.8333 57° Northeast 540 621 32,900  Level Gander Center
02:14AM 52.4667 -55.6333 56° Northeast 540 621 32,900  Level Gander Center
02:15AM 52.5500 -55.4000 60° Northeast 530 610 32,900  Level Gander Center
02:16AM 52.6167 -55.2167 59° Northeast 530 610 32,900  Level Gander Center
02:17AM 52.7167 -54.9833 55° Northeast 530 610 32,900  Level Gander Center
02:18AM 52.7833 -54.8000 59° Northeast 530 610 32,900  Level Gander Center
02:19AM 52.8667 -54.6000 55° Northeast 530 610 33,000  Climbing Gander Center
02:20AM 52.9500 -54.4000 55° Northeast 530 610 33,000 -60 Level Gander Center
02:21AM 53.0167 -54.1833 63° Northeast 540 621 32,900 -60 Descending Gander Center
02:22AM 53.0833 -53.9500 64° Northeast 540 621 32,900  Level Gander Center
02:23AM 53.1667 -53.6333 66° East 370 426 32,900  Level Gander Center
02:24AM 53.2000 -53.3667 78° East 540 621 32,900  Level Gander Center
02:25AM 53.2667 -53.1333 64° Northeast 550 633 32,900  Level Gander Center
02:26AM 53.3167 -52.9000 70° East 550 633 32,900  Level Gander Center
02:27AM 53.3667 -52.6667 70° East 550 633 32,900  Level Gander Center
02:28AM 53.4333 -52.4333 64° Northeast 550 633 32,900  Level Gander Center
02:29AM 53.4833 -52.1833 71° East 550 633 32,900  Level Gander Center
02:30AM 53.5333 -51.9500 70° East 550 633 32,900  Level Gander Center
02:31AM 53.5833 -51.7167 70° East 550 633 32,900  Level Gander Center
02:32AM 53.6500 -51.4667 66° East 550 633 32,900  Level Gander Center
02:33AM 53.7000 -51.2000 72° East 550 633 32,900  Level Gander Center
02:34AM 53.7500 -50.9667 70° East 550 633 32,900  Level Gander Center
02:35AM 53.8167 -50.7167 66° East 560 644 32,900  Level Gander Center
02:36AM 53.8500 -50.4833 76° East 560 644 32,900  Level Gander Center
02:37AM 53.9000 -50.2500 70° East 550 633 32,900  Level Gander Center
02:38AM 53.9667 -50.0000 66° East 550 633 32,900  Level Gander Center
02:40AM 54.0461 -49.6746 76° East  Level FlightAware Approximate
02:47AM 54.2673 -48.0074 77° East  Level FlightAware Approximate
02:48AM 54.2970 -47.7678 78° East  Level FlightAware Approximate
02:49AM 54.3262 -47.5278 78° East  Level FlightAware Approximate
02:50AM 54.3549 -47.2876 78° East  Level FlightAware Approximate
02:51AM 54.3832 -47.0469 78° East  Level FlightAware Approximate
02:52AM 54.4110 -46.8060 79° East  Level FlightAware Approximate
02:53AM 54.4383 -46.5647 79° East  Level FlightAware Approximate
02:54AM 54.4652 -46.3231 79° East  Level FlightAware Approximate
02:55AM 54.4915 -46.0812 79° East  Level FlightAware Approximate
02:56AM 54.5174 -45.8390 79° East  Level FlightAware Approximate
02:57AM 54.5428 -45.5965 80° East  Level FlightAware Approximate
02:58AM 54.5677 -45.3536 80° East  Level FlightAware Approximate
02:59AM 54.5921 -45.1105 80° East  Level FlightAware Approximate
03:00AM 54.6160 -44.8671 80° East  Level FlightAware Approximate
03:01AM 54.6394 -44.6235 80° East  Level FlightAware Approximate
03:02AM 54.6624 -44.3795 81° East  Level FlightAware Approximate
03:03AM 54.6854 -44.1354 81° East  Level FlightAware Approximate
03:04AM 54.7080 -43.8911 81° East  Level FlightAware Approximate
03:05AM 54.7302 -43.6465 81° East  Level FlightAware Approximate
03:06AM 54.7519 -43.4016 81° East  Level FlightAware Approximate
03:07AM 54.7730 -43.1565 81° East  Level FlightAware Approximate
03:08AM 54.7937 -42.9111 82° East  Level FlightAware Approximate
03:09AM 54.8139 -42.6655 82° East  Level FlightAware Approximate
03:10AM 54.8336 -42.4197 82° East  Level FlightAware Approximate
03:11AM 54.8528 -42.1735 82° East  Level FlightAware Approximate
03:12AM 54.8715 -41.9272 82° East  Level FlightAware Approximate
03:13AM 54.8895 -41.6836 83° East  Level FlightAware Approximate
03:14AM 54.9070 -41.4398 83° East  Level FlightAware Approximate
03:15AM 54.9240 -41.1958 83° East  Level FlightAware Approximate
03:16AM 54.9405 -40.9516 83° East  Level FlightAware Approximate
03:17AM 54.9565 -40.7072 83° East  Level FlightAware Approximate
03:18AM 54.9720 -40.4626 84° East  Level FlightAware Approximate
03:19AM 54.9870 -40.2178 84° East  Level FlightAware Approximate
03:20AM 54.9985 -39.9728 96° East  Level FlightAware Approximate
03:21AM 54.9842 -39.7278 96° East  Level FlightAware Approximate
03:22AM 54.9694 -39.4830 96° East  Level FlightAware Approximate
03:23AM 54.9542 -39.2383 96° East  Level FlightAware Approximate
03:24AM 54.9384 -38.9939 96° East  Level FlightAware Approximate
03:25AM 54.9222 -38.7496 96° East  Level FlightAware Approximate
03:26AM 54.9055 -38.5055 97° East  Level FlightAware Approximate
03:27AM 54.8883 -38.2617 97° East  Level FlightAware Approximate
03:28AM 54.8706 -38.0180 97° East  Level FlightAware Approximate
03:29AM 54.8524 -37.7746 97° East  Level FlightAware Approximate
03:30AM 54.8337 -37.5314 97° East  Level FlightAware Approximate
03:31AM 54.8146 -37.2884 98° East  Level FlightAware Approximate
03:32AM 54.7949 -37.0456 98° East  Level FlightAware Approximate
03:33AM 54.7748 -36.8031 98° East  Level FlightAware Approximate
03:34AM 54.7542 -36.5608 98° East  Level FlightAware Approximate
03:35AM 54.7331 -36.3188 98° East  Level FlightAware Approximate
03:36AM 54.7116 -36.0779 99° East  Level FlightAware Approximate
03:37AM 54.6897 -35.8372 99° East  Level FlightAware Approximate
03:38AM 54.6672 -35.5967 99° East  Level FlightAware Approximate
03:39AM 54.6443 -35.3566 99° East  Level FlightAware Approximate
03:40AM 54.6209 -35.1167 99° East  Level FlightAware Approximate
03:41AM 54.5970 -34.8771 100° East  Level FlightAware Approximate
03:42AM 54.5727 -34.6377 100° East  Level FlightAware Approximate
03:43AM 54.5478 -34.3987 100° East  Level FlightAware Approximate
03:44AM 54.5225 -34.1600 100° East  Level FlightAware Approximate
03:45AM 54.4968 -33.9215 100° East  Level FlightAware Approximate
03:46AM 54.4706 -33.6833 101° East  Level FlightAware Approximate
03:47AM 54.4439 -33.4455 101° East  Level FlightAware Approximate
03:48AM 54.4167 -33.2080 101° East  Level FlightAware Approximate
03:49AM 54.3891 -32.9708 101° East  Level FlightAware Approximate
03:50AM 54.3610 -32.7339 101° East  Level FlightAware Approximate
03:51AM 54.3324 -32.4973 102° East  Level FlightAware Approximate
03:52AM 54.3034 -32.2611 102° East  Level FlightAware Approximate
03:53AM 54.2739 -32.0252 102° East  Level FlightAware Approximate
03:54AM 54.2440 -31.7896 102° East  Level FlightAware Approximate
03:55AM 54.2136 -31.5544 102° East  Level FlightAware Approximate
03:56AM 54.1827 -31.3188 103° East  Level FlightAware Approximate
03:57AM 54.1512 -31.0835 103° East  Level FlightAware Approximate
03:58AM 54.1195 -30.8493 103° East  Level FlightAware Approximate
03:59AM 54.0872 -30.6156 103° East  Level FlightAware Approximate
04:00AM 54.0546 -30.3821 103° East  Level FlightAware Approximate
04:01AM 54.0215 -30.1491 104° East  Level FlightAware Approximate
04:02AM 54.0035 -29.9141 86° East  Level FlightAware Approximate
04:03AM 54.0131 -29.6751 86° East  Level FlightAware Approximate
04:04AM 54.0221 -29.4359 86° East  Level FlightAware Approximate
04:05AM 54.0307 -29.1966 86° East  Level FlightAware Approximate
04:06AM 54.0388 -28.9573 87° East  Level FlightAware Approximate
04:07AM 54.0465 -28.7178 87° East  Level FlightAware Approximate
04:08AM 54.0536 -28.4783 87° East  Level FlightAware Approximate
04:09AM 54.0603 -28.2386 87° East  Level FlightAware Approximate
04:10AM 54.0665 -27.9989 87° East  Level FlightAware Approximate
04:11AM 54.0722 -27.7592 88° East  Level FlightAware Approximate
04:12AM 54.0775 -27.5193 88° East  Level FlightAware Approximate
04:13AM 54.0823 -27.2794 88° East  Level FlightAware Approximate
04:14AM 54.0866 -27.0395 88° East  Level FlightAware Approximate
04:15AM 54.0904 -26.7995 88° East  Level FlightAware Approximate
04:16AM 54.0937 -26.5595 89° East  Level FlightAware Approximate
04:17AM 54.0966 -26.3194 89° East  Level FlightAware Approximate
04:18AM 54.0990 -26.0793 89° East  Level FlightAware Approximate
04:19AM 54.1009 -25.8392 89° East  Level FlightAware Approximate
04:20AM 54.1023 -25.5991 89° East  Level FlightAware Approximate
04:21AM 54.1033 -25.3589 90° East  Level FlightAware Approximate
04:22AM 54.1038 -25.1188 90° East  Level FlightAware Approximate
04:23AM 54.1038 -24.8786 90° East  Level FlightAware Approximate
04:24AM 54.1033 -24.6385 90° East  Level FlightAware Approximate
04:25AM 54.1023 -24.3983 90° East  Level FlightAware Approximate
04:26AM 54.1009 -24.1582 90° East  Level FlightAware Approximate
04:27AM 54.0990 -23.9180 91° East  Level FlightAware Approximate
04:28AM 54.0966 -23.6779 91° East  Level FlightAware Approximate
04:29AM 54.0937 -23.4379 91° East  Level FlightAware Approximate
04:30AM 54.0904 -23.1979 91° East  Level FlightAware Approximate
04:31AM 54.0865 -22.9579 91° East  Level FlightAware Approximate
04:32AM 54.0822 -22.7179 92° East  Level FlightAware Approximate
04:33AM 54.0774 -22.4781 92° East  Level FlightAware Approximate
04:34AM 54.0722 -22.2382 92° East  Level FlightAware Approximate
04:35AM 54.0664 -21.9985 92° East  Level FlightAware Approximate
04:36AM 54.0602 -21.7588 92° East  Level FlightAware Approximate
04:37AM 54.0536 -21.5191 93° East  Level FlightAware Approximate
04:38AM 54.0464 -21.2796 93° East  Level FlightAware Approximate
04:39AM 54.0387 -21.0401 93° East  Level FlightAware Approximate
04:40AM 54.0306 -20.8004 93° East  Level FlightAware Approximate
04:41AM 54.0220 -20.5607 93° East  Level FlightAware Approximate
04:42AM 54.0129 -20.3211 94° East  Level FlightAware Approximate
04:43AM 54.0034 -20.0817 94° East  Level FlightAware Approximate
04:44AM 53.9904 -19.8428 96° East  Level FlightAware Approximate
04:45AM 53.9754 -19.6043 96° East  Level FlightAware Approximate
04:46AM 53.9600 -19.3660 96° East  Level FlightAware Approximate
04:47AM 53.9441 -19.1278 96° East  Level FlightAware Approximate
04:48AM 53.9277 -18.8898 97° East  Level FlightAware Approximate
04:49AM 53.9112 -18.6520 97° East  Level FlightAware Approximate
04:50AM 53.8947 -18.4142 97° East  Level FlightAware Approximate
04:51AM 53.8778 -18.1766 97° East  Level FlightAware Approximate
04:52AM 53.8604 -17.9393 97° East  Level FlightAware Approximate
04:53AM 53.8424 -17.7021 97° East  Level FlightAware Approximate
04:54AM 53.8237 -17.4652 98° East  Level FlightAware Approximate
04:55AM 53.8045 -17.2285 98° East  Level FlightAware Approximate
04:56AM 53.7849 -16.9921 98° East  Level FlightAware Approximate
04:57AM 53.7648 -16.7558 98° East  Level FlightAware Approximate
04:58AM 53.7442 -16.5198 98° East  Level FlightAware Approximate
04:59AM 53.7231 -16.2841 98° East  Level FlightAware Approximate
05:00AM 53.7016 -16.0485 99° East  Level FlightAware Approximate
05:01AM 53.6797 -15.8132 99° East  Level FlightAware Approximate
05:02AM 53.6572 -15.5782 99° East  Level FlightAware Approximate
05:03AM 53.6344 -15.3438 99° East  Level FlightAware Approximate
05:04AM 53.6111 -15.1097 99° East  Level FlightAware Approximate
05:05AM 53.5867 -14.8760 100° East  Level FlightAware Approximate
05:06AM 53.5612 -14.6427 100° East  Level FlightAware Approximate
05:07AM 53.5352 -14.4098 101° East  Level FlightAware Approximate
05:08AM 53.5089 -14.1771 101° East  Level FlightAware Approximate
05:09AM 53.4833 -13.9444 100° East  Level FlightAware Approximate
05:10AM 53.4579 -13.7117 100° East  Level FlightAware Approximate
05:11AM 53.4320 -13.4793 100° East  Level FlightAware Approximate
05:11AM 53.5640 -12.3480 101° East 484 557 37,000  Level FlightAware
05:12AM 53.4057 -13.2472 101° East  Level FlightAware Approximate
05:12AM 53.5440 -12.2250 105° East 484 557 37,000  Level FlightAware
05:13AM 53.5130 -12.0630 108° East 483 556 37,000  Level FlightAware
05:13AM 53.4840 -11.8970 106° East 484 557 37,000  Level FlightAware
05:14AM 53.4580 -11.7530 107° East 487 560 37,000  Level FlightAware
05:15AM 53.4330 -11.6190 107° East 488 562 37,000  Level FlightAware
05:15AM 53.4000 -11.4430 107° East 488 562 37,000  Level FlightAware
05:16AM 53.3720 -11.2950 108° East 488 562 37,000  Level FlightAware
05:17AM 53.3420 -11.1330 107° East 488 562 37,000  Level FlightAware
05:17AM 53.3140 -10.9860 108° East 489 563 37,000  Level FlightAware
05:18AM 53.2840 -10.8270 107° East 491 565 37,000  Level FlightAware
05:19AM 53.2600 -10.7080 109° East 489 563 37,000  Level FlightAware
05:19AM 53.2300 -10.5530 108° East 491 565 37,000  Level FlightAware
05:20AM 53.2010 -10.4050 108° East 490 564 37,000  Level FlightAware
05:21AM 53.1740 -10.2680 108° East 491 565 37,000  Level FlightAware
05:22AM 53.1410 -10.1010 108° East 492 566 37,000  Level FlightAware
05:22AM 53.1160 -9.9750 108° East 492 566 37,000  Level FlightAware
05:23AM 53.0830 -9.8130 109° East 491 565 37,000  Level FlightAware
05:23AM 53.0600 -9.6990 109° East 490 564 37,000  Level FlightAware
05:24AM 53.0240 -9.5230 109° East 489 563 37,000  Level FlightAware
05:25AM 52.9940 -9.3770 109° East 492 566 37,000  Level FlightAware
05:26AM 52.9650 -9.2380 109° East 493 567 37,000  Level FlightAware
05:26AM 52.9300 -9.0710 109° East 493 567 37,000  Level FlightAware
05:27AM 52.9040 -8.9490 109° East 495 570 37,000  Level FlightAware
05:28AM 52.8720 -8.7990 109° East 498 573 37,000 -120 Level FlightAware
05:28AM 52.8429 -8.6598 109° East 492 566 36,900  Descending FlightAware UK
05:28AM 52.8380 -8.6410 109° East 496 571 37,000 120 Climbing FlightAware
05:29AM 52.8150 -8.5330 109° East 497 572 37,000  Level FlightAware
05:30AM 52.7800 -8.3720 110° East 496 571 37,000 -120 Level FlightAware
05:30AM 52.7494 -8.2283 110° East 492 566 36,900  Descending FlightAware UK
05:30AM 52.7500 -8.2330 110° East 496 571 37,000 120 Climbing FlightAware
05:31AM 52.7130 -8.0650 110° East 497 572 37,000 -120 Level FlightAware
05:32AM 52.6840 -7.9330 110° East 495 570 36,900 -120 Descending FlightAware
05:32AM 52.6541 -7.8004 110° East 494 568 36,900 120 Level FlightAware UK
05:32AM 52.6490 -7.7800 110° East 494 568 37,000  Climbing FlightAware
05:33AM 52.6065 -7.5880 110° East 490 564 36,900  Descending FlightAware UK
05:33AM 52.6010 -7.5650 110° East 493 567 37,000 120 Climbing FlightAware
05:34AM 52.5730 -7.4410 110° East 493 567 37,000 -120 Level FlightAware
05:35AM 52.5345 -7.2706 110° East 486 559 36,900  Descending FlightAware UK
05:35AM 52.5290 -7.2470 110° East 497 572 37,000 60 Climbing FlightAware
05:36AM 52.4870 -7.0700 111° Southeast 500 575 37,000 -120 Level FlightAware
05:36AM 52.4607 -6.9518 111° Southeast 490 564 36,900  Descending FlightAware UK
05:36AM 52.4550 -6.9320 111° Southeast 502 578 37,000 60 Climbing FlightAware
05:37AM 52.4180 -6.7720 111° Southeast 504 580 37,000 -120 Level FlightAware
05:38AM 52.3857 -6.6312 111° Southeast 488 562 36,900  Descending FlightAware UK
05:38AM 52.3850 -6.6290 111° Southeast 506 582 37,000 120 Climbing FlightAware
05:38AM 52.3560 -6.5110 112° Southeast 506 582 37,000  Level FlightAware
05:39AM 52.3150 -6.3360 111° Southeast 506 582 37,000 -120 Level FlightAware
05:40AM 52.2881 -6.2233 111° Southeast 496 571 36,900  Descending FlightAware UK
05:40AM 52.2840 -6.2110 111° Southeast 506 582 37,000 120 Climbing FlightAware
05:40AM 52.2460 -6.0530 111° Southeast 509 586 37,000  Level FlightAware
05:41AM 52.2150 -5.9090 109° East 508 585 37,000 -120 Level FlightAware
05:42AM 52.1890 -5.7435 109° East 496 571 36,900  Descending FlightAware UK
05:42AM 52.1900 -5.7460 109° East 508 585 37,000  Climbing FlightAware
05:42AM 52.1737 -5.6318 109° East 496 571 36,900 -180 Descending FlightAware UK
05:43AM 52.1680 -5.5900 109° East 506 582 36,900 60 Level FlightAware
05:43AM 52.1460 -5.4300 103° East 504 580 37,000  Climbing FlightAware
05:44AM 52.1270 -5.2860 102° East 502 578 36,900  Descending FlightAware
05:45AM 52.1040 -5.1210 103° East 501 577 37,000 60 Climbing FlightAware
05:45AM 52.0840 -4.9750 103° East 500 575 37,000 -120 Level FlightAware
05:46AM 52.0615 -4.8143 103° East 492 566 36,900  Descending FlightAware UK
05:46AM 52.0630 -4.8250 103° East 498 573 37,000  Climbing FlightAware
05:47AM 52.0430 -4.6832 103° East 492 566 36,900  Descending FlightAware UK
05:47AM 52.0410 -4.6720 103° East 497 572 37,000  Climbing FlightAware
05:47AM 52.0181 -4.5092 103° East 490 564 36,900  Descending FlightAware UK
05:47AM 52.0170 -4.5060 103° East 496 571 37,000  Climbing FlightAware
05:48AM 51.9992 -4.3794 103° East 490 564 36,900  Descending FlightAware UK
05:48AM 51.9970 -4.3690 103° East 494 568 37,000 60 Climbing FlightAware
05:49AM 51.9730 -4.1990 103° East 494 568 37,000  Level FlightAware
05:50AM 51.9540 -4.0700 103° East 494 568 37,000  Level FlightAware
05:50AM 51.9320 -3.9260 104° East 495 570 37,000 -120 Level FlightAware
05:51AM 51.9094 -3.7739 104° East 486 559 36,900  Descending FlightAware UK
05:51AM 51.9100 -3.7820 104° East 497 572 37,000 120 Climbing FlightAware
05:52AM 51.8880 -3.6340 104° East 499 574 37,000 -180 Level FlightAware
05:52AM 51.8864 -3.6222 104° East 486 559 36,900  Descending FlightAware UK
05:52AM 51.8650 -3.4820 104° East 499 574 37,000  Climbing FlightAware
05:53AM 51.8461 -3.3614 104° East 492 566 36,900  Descending FlightAware UK
05:53AM 51.8400 -3.3230 104° East 501 577 37,000 60 Climbing FlightAware
05:54AM 51.8160 -3.1740 105° East 500 575 37,000 -120 Level FlightAware
05:54AM 51.7950 -3.0346 105° East 496 571 36,900  Descending FlightAware UK
05:54AM 51.7930 -3.0220 105° East 500 575 37,000  Climbing FlightAware
05:55AM 51.7657 -2.8526 105° East 500 575 36,900  Descending FlightAware ADS-B
05:56AM 51.7468 -2.7341 104° East 499 574 37,000 60 Climbing FlightAware ADS-B
05:56AM 51.7288 -2.6230 105° East 498 573 37,000  Level FlightAware ADS-B
05:57AM 51.7080 -2.4972 105° East 498 573 37,000 -120 Level FlightAware ADS-B
05:58AM 51.6806 -2.2980 105° East 488 562 36,900  Descending FlightAware UK
05:58AM 51.6770 -2.2620 105° East 498 573 37,000 60 Climbing FlightAware
05:59AM 51.6605 -2.0710 98° East 499 574 37,000  Level FlightAware ADS-B
05:59AM 51.6496 -1.9610 99° East 500 575 37,000  Level FlightAware ADS-B
06:00AM 51.6374 -1.8437 99° East 500 575 37,000  Level FlightAware ADS-B
06:00AM 51.6218 -1.6977 100° East 499 574 37,000  Level FlightAware ADS-B
06:01AM 51.6091 -1.5808 100° East 499 574 37,000  Level FlightAware ADS-B
06:02AM 51.5953 -1.4531 100° East 500 575 37,000  Level FlightAware ADS-B
06:02AM 51.5821 -1.3326 100° East 499 574 37,000  Level FlightAware ADS-B
06:03AM 51.5689 -1.2122 100° East 500 575 37,000  Level FlightAware ADS-B
06:03AM 51.5569 -1.1028 100° East 500 575 37,000  Level FlightAware ADS-B
06:04AM 51.5452 -0.9896 99° East 499 574 37,000  Level FlightAware ADS-B
06:04AM 51.5330 -0.8765 100° East 500 575 37,000  Level FlightAware ADS-B
06:05AM 51.5211 -0.7671 100° East 500 575 37,000  Level FlightAware ADS-B
06:05AM 51.5079 -0.6465 100° East 501 577 37,000  Level FlightAware ADS-B
06:06AM 51.4952 -0.5337 100° East 501 577 37,000  Level FlightAware ADS-B
06:06AM 51.4830 -0.4243 100° East 500 575 37,000  Level FlightAware ADS-B
06:07AM 51.4699 -0.3076 100° East 500 575 37,000  Level FlightAware ADS-B
06:07AM 51.4565 -0.1873 100° East 501 577 37,000  Level FlightAware ADS-B
06:08AM 51.4402 -0.0455 100° East 501 577 37,000  Level FlightAware ADS-B
06:08AM 51.4268 0.0674 101° East 502 578 37,000  Level FlightAware ADS-B
06:09AM 51.4137 0.1804 100° East 502 578 37,000  Level FlightAware ADS-B
06:10AM 51.3930 0.3520 100° East 501 577 37,000 -120 Level FlightAware
06:10AM 51.3901 0.3802 100° East 490 564 36,900 -240 Descending FlightAware UK
06:10AM 51.3770 0.4901 100° East 492 566 36,900 120 Level FlightAware UK
06:11AM 51.3700 0.5450 100° East 502 578 37,000 60 Climbing FlightAware
06:11AM 51.3530 0.6830 101° East 501 577 37,000 -120 Level FlightAware
06:12AM 51.3371 0.8177 101° East 492 566 36,900  Descending FlightAware UK
06:12AM 51.3340 0.8420 101° East 500 575 37,000 120 Climbing FlightAware
06:13AM 51.3180 0.9650 102° East 499 574 37,000  Level FlightAware
06:13AM 51.2990 1.1200 101° East 499 574 37,000  Level FlightAware
06:14AM 51.2800 1.2680 102° East 498 573 37,000  Level FlightAware
06:15AM 51.2510 1.4380 105° East 502 578 37,000 -120 Level FlightAware
06:15AM 51.2162 1.5672 105° East 490 564 36,900  Descending FlightAware UK
06:15AM 51.2140 1.5710 105° East 503 579 37,000  Climbing FlightAware
06:16AM 51.1817 1.6878 105° East 492 566 36,900 -120 Descending FlightAware UK
06:17AM 51.1526 1.7884 115° Southeast 490 564 36,900 120 Level FlightAware UK
06:17AM 51.1390 1.8330 115° Southeast 501 577 37,000 60 Climbing FlightAware
06:17AM 51.1000 1.9660 115° Southeast 501 577 37,000  Level FlightAware
06:18AM 51.0640 2.0900 115° Southeast 501 577 37,000  Level FlightAware
06:19AM 51.0190 2.2420 115° Southeast 500 575 37,000  Level FlightAware
06:20AM 50.9770 2.3780 116° Southeast 499 574 37,000  Level FlightAware
06:20AM 50.9330 2.5300 115° Southeast 499 574 37,000  Level FlightAware
06:21AM 50.8800 2.7050 116° Southeast 496 571 37,000  Level FlightAware
06:22AM 50.8410 2.8330 116° Southeast 497 572 37,000 -180 Level FlightAware
06:22AM 50.8330 2.8630 116° Southeast 486 559 36,900 -180 Descending FlightAware UK
06:22AM 50.8029 2.9618 116° Southeast 488 562 36,900 120 Level FlightAware UK
06:23AM 50.7950 2.9850 116° Southeast 497 572 37,000 120 Climbing FlightAware
06:23AM 50.7570 3.1060 116° Southeast 497 572 37,000  Level FlightAware
06:24AM 50.7070 3.2670 116° Southeast 497 572 37,000 -180 Level FlightAware
06:24AM 50.7050 3.2777 116° Southeast 490 564 36,900 -240 Descending FlightAware UK
06:25AM 50.6746 3.3760 116° Southeast 488 562 36,900 120 Level FlightAware UK
06:25AM 50.6690 3.3910 116° Southeast 496 571 37,000 60 Climbing FlightAware
06:25AM 50.6220 3.5450 116° Southeast 500 575 37,000  Level FlightAware
06:26AM 50.5800 3.6780 116° Southeast 500 575 37,000  Level FlightAware
06:27AM 50.5440 3.7890 117° Southeast 500 575 37,000  Level FlightAware
06:27AM 50.5000 3.9250 117° Southeast 500 575 37,000 -120 Level FlightAware
06:28AM 50.4644 4.0392 117° Southeast 490 564 36,900  Descending FlightAware UK
06:28AM 50.4580 4.0580 117° Southeast 500 575 37,000 120 Climbing FlightAware
06:29AM 50.4160 4.1910 116° Southeast 501 577 37,000  Level FlightAware
06:29AM 50.3710 4.3300 117° Southeast 502 578 37,000  Level FlightAware
06:30AM 50.3270 4.4630 117° Southeast 502 578 37,000  Level FlightAware
06:31AM 50.2780 4.6150 117° Southeast 502 578 37,000  Level FlightAware
06:32AM 50.2380 4.7410 116° Southeast 501 577 37,000  Level FlightAware
06:32AM 50.1930 4.8800 117° Southeast 500 575 37,000  Level FlightAware
06:33AM 50.1430 5.0340 117° Southeast 501 577 37,000  Level FlightAware
06:34AM 50.0890 5.1980 117° Southeast 500 575 37,000  Level FlightAware
06:35AM 50.0480 5.3260 116° Southeast 502 578 37,000  Level FlightAware
06:35AM 50.0050 5.4590 117° Southeast 504 580 37,000  Level FlightAware
06:36AM 49.9590 5.6010 117° Southeast 505 581 37,000  Level FlightAware
06:37AM 49.9220 5.7150 117° Southeast 506 582 37,000  Level FlightAware
06:37AM 49.8730 5.8670 117° Southeast 504 580 37,000  Level FlightAware
06:38AM 49.8220 6.0020 120° Southeast 506 582 37,000  Level FlightAware
06:39AM 49.7830 6.0970 122° Southeast 510 587 37,000  Level FlightAware
06:39AM 49.7250 6.2340 123° Southeast 505 581 37,000  Level FlightAware
06:40AM 49.6690 6.3640 124° Southeast 507 583 37,000  Level FlightAware
06:41AM 49.6050 6.5110 124° Southeast 505 581 37,000  Level FlightAware
06:42AM 49.5560 6.6240 124° Southeast 504 580 37,000  Level FlightAware
06:42AM 49.4930 6.7660 124° Southeast 503 579 37,000  Level FlightAware
06:43AM 49.4390 6.8780 127° Southeast 503 579 37,000  Level FlightAware
06:44AM 49.3750 7.0080 127° Southeast 502 578 37,000  Level FlightAware
06:44AM 49.3270 7.1050 127° Southeast 497 572 37,000  Level FlightAware
06:45AM 49.2620 7.2390 127° Southeast 499 574 37,000  Level FlightAware
06:46AM 49.2150 7.3330 127° Southeast 505 581 37,000  Level FlightAware
06:46AM 49.1460 7.4630 129° Southeast 500 575 37,000  Level FlightAware
06:47AM 49.0600 7.6060 133° Southeast 501 577 37,000  Level FlightAware
06:48AM 49.0110 7.6870 133° Southeast 502 578 37,000  Level FlightAware
06:49AM 48.9370 7.8070 133° Southeast 502 578 37,000  Level FlightAware
06:49AM 48.8730 7.9110 133° Southeast 503 579 37,000  Level FlightAware
06:50AM 48.8010 8.0270 133° Southeast 503 579 37,000  Level FlightAware
06:51AM 48.7390 8.1260 134° Southeast 504 580 37,000  Level FlightAware
06:51AM 48.6670 8.2400 134° Southeast 504 580 37,000  Level FlightAware
06:52AM 48.6000 8.3480 133° Southeast 510 587 37,000  Level FlightAware
06:53AM 48.5510 8.4250 134° Southeast 511 588 37,000  Level FlightAware
06:53AM 48.4740 8.5490 133° Southeast 512 589 37,000  Level FlightAware
06:54AM 48.4070 8.6530 134° Southeast 512 589 37,000  Level FlightAware
06:55AM 48.3540 8.7350 134° Southeast 513 590 37,000  Level FlightAware
06:55AM 48.2850 8.8430 134° Southeast 514 592 37,000  Level FlightAware
06:56AM 48.2180 8.9480 134° Southeast 514 592 37,000  Level FlightAware
06:57AM 48.1430 9.0660 134° Southeast 514 592 37,000  Level FlightAware
06:57AM 48.0760 9.1680 134° Southeast 514 592 37,000  Level FlightAware
06:58AM 48.0040 9.2780 134° Southeast 509 586 37,000  Level FlightAware
06:59AM 47.9350 9.3840 134° Southeast 508 585 37,000  Level FlightAware
07:00AM 47.8210 9.5590 134° Southeast 515 593 37,000  Level FlightAware
07:01AM 47.7470 9.6700 135° Southeast 509 586 37,000  Level FlightAware
07:02AM 47.6680 9.7910 134° Southeast 509 586 37,000  Level FlightAware
07:02AM 47.6000 9.8920 135° Southeast 510 587 37,000  Level FlightAware
07:03AM 47.5400 9.9820 135° Southeast 511 588 37,000  Level FlightAware
07:04AM 47.4490 10.1170 135° Southeast 512 589 37,000  Level FlightAware
07:04AM 47.3870 10.2100 135° Southeast 513 590 37,000  Level FlightAware
07:05AM 47.3220 10.3050 135° Southeast 520 598 37,000  Level FlightAware
07:06AM 47.2470 10.4210 134° Southeast 520 598 37,000  Level FlightAware
07:06AM 47.1830 10.5230 133° Southeast 520 598 37,000  Level FlightAware
07:07AM 47.1180 10.6270 133° Southeast 521 600 37,000  Level FlightAware
07:08AM 47.0400 10.7510 133° Southeast 521 600 37,000  Level FlightAware
07:08AM 46.9750 10.8540 133° Southeast 520 598 37,000  Level FlightAware
07:09AM 46.9080 10.9560 134° Southeast 521 600 37,000  Level FlightAware
07:10AM 46.8350 11.0690 133° Southeast 522 601 37,000  Level FlightAware
07:11AM 46.7690 11.1710 133° Southeast 522 601 37,000  Level FlightAware
07:11AM 46.7150 11.2530 134° Southeast 523 602 37,000  Level FlightAware
07:12AM 46.6280 11.3880 133° Southeast 522 601 37,000  Level FlightAware
07:13AM 46.5600 11.4900 134° Southeast 522 601 37,000  Level FlightAware
07:13AM 46.4840 11.6070 133° Southeast 522 601 37,000  Level FlightAware
07:14AM 46.4170 11.7080 134° Southeast 523 602 37,000  Level FlightAware
07:15AM 46.3420 11.8220 134° Southeast 523 602 37,000  Level FlightAware
07:15AM 46.2750 11.9230 134° Southeast 524 603 37,000  Level FlightAware
07:16AM 46.2000 12.0330 135° Southeast 522 601 37,000  Level FlightAware
07:17AM 46.1130 12.1630 134° Southeast 517 595 37,000  Level FlightAware
07:18AM 46.0450 12.2630 134° Southeast 517 595 37,000  Level FlightAware
07:19AM 45.9690 12.3780 134° Southeast 517 595 37,000 -120 Level FlightAware
07:19AM 45.9010 12.4770 135° Southeast 517 595 36,900  Descending FlightAware
07:20AM 45.8340 12.5730 135° Southeast 517 595 37,000 60 Climbing FlightAware
07:21AM 45.7560 12.6870 134° Southeast 524 603 37,000  Level FlightAware
07:21AM 45.6800 12.7990 134° Southeast 526 605 37,000  Level FlightAware
07:22AM 45.6270 12.8750 135° Southeast 526 605 37,000  Level FlightAware
07:23AM 45.5510 12.9840 135° Southeast 526 605 37,000  Level FlightAware
07:23AM 45.4840 13.0820 134° Southeast 526 605 37,000  Level FlightAware
07:24AM 45.4130 13.1980 131° Southeast 523 602 37,000  Level FlightAware
07:25AM 45.3580 13.3000 127° Southeast 524 603 37,000  Level FlightAware
07:25AM 45.3160 13.3810 126° Southeast 525 604 37,000  Level FlightAware
07:26AM 45.2540 13.5010 126° Southeast 525 604 37,000  Level FlightAware
07:27AM 45.1880 13.6270 127° Southeast 531 611 37,000  Level FlightAware
07:27AM 45.1150 13.7640 127° Southeast 527 606 37,000  Level FlightAware
07:28AM 45.0580 13.8730 126° Southeast 528 608 37,000  Level FlightAware
07:29AM 45.0050 13.9740 127° Southeast 528 608 37,000  Level FlightAware
07:30AM 44.8810 14.2110 126° Southeast 534 615 37,000  Level FlightAware
07:31AM 44.8040 14.3530 127° Southeast 535 616 37,000  Level FlightAware
07:32AM 44.7310 14.4890 127° Southeast 536 617 37,000  Level FlightAware
07:33AM 44.6520 14.6370 127° Southeast 536 617 37,000  Level FlightAware
07:33AM 44.5980 14.7370 127° Southeast 538 619 37,000  Level FlightAware
07:34AM 44.4940 14.9250 128° Southeast 539 620 37,000  Level FlightAware
07:35AM 44.4260 15.0500 127° Southeast 534 615 37,000  Level FlightAware
07:36AM 44.3670 15.1570 128° Southeast 533 613 37,000  Level FlightAware
07:37AM 44.2870 15.3070 127° Southeast 532 612 37,000  Level FlightAware
07:38AM 44.2130 15.4490 126° Southeast 532 612 37,000  Level FlightAware
07:38AM 44.1690 15.5340 126° Southeast 532 612 37,000  Level FlightAware
07:39AM 44.1240 15.6190 126° Southeast 532 612 37,000  Level FlightAware
07:40AM 44.0220 15.7810 131° Southeast 525 604 37,000  Level FlightAware
07:40AM 43.9580 15.8950 128° Southeast 527 606 37,000  Level FlightAware
07:41AM 43.8970 16.0000 129° Southeast 528 608 37,000  Level FlightAware
07:42AM 43.8370 16.1050 128° Southeast 530 610 37,000  Level FlightAware
07:42AM 43.7590 16.2410 128° Southeast 530 610 37,000  Level FlightAware
07:43AM 43.6920 16.3570 129° Southeast 530 610 37,000  Level FlightAware
07:44AM 43.6370 16.4560 127° Southeast 526 605 37,000  Level FlightAware
07:45AM 43.5180 16.6590 129° Southeast 522 601 37,000 300 Level FlightAware
07:46AM 43.4250 16.8190 129° Southeast 527 606 37,700 720 Climbing FlightAware
07:47AM 43.3570 16.9350 129° Southeast 538 619 38,200 660 Climbing FlightAware
07:48AM 43.2900 17.0510 128° Southeast 543 625 38,700 540 Climbing FlightAware
07:48AM 43.2180 17.1710 129° Southeast 543 625 39,000 180 Climbing FlightAware
07:49AM 43.1440 17.2970 129° Southeast 542 624 39,000  Level FlightAware
07:50AM 43.0820 17.4010 129° Southeast 541 623 39,000  Level FlightAware
07:50AM 43.0180 17.5090 129° Southeast 540 621 39,000  Level FlightAware
07:51AM 42.9490 17.6250 129° Southeast 539 620 39,000  Level FlightAware
07:52AM 42.8950 17.7150 129° Southeast 540 621 39,000  Level FlightAware
07:52AM 42.8310 17.8200 130° Southeast 541 623 39,000  Level FlightAware
07:53AM 42.7420 17.9680 129° Southeast 543 625 39,000  Level FlightAware
07:54AM 42.6660 18.0920 130° Southeast 540 621 39,000  Level FlightAware
07:55AM 42.5950 18.2100 129° Southeast 546 628 39,000  Level FlightAware
07:55AM 42.5320 18.3050 132° Southeast 546 628 39,000  Level FlightAware
07:56AM 42.4690 18.3900 135° Southeast 545 627 39,000  Level FlightAware
07:57AM 42.3830 18.5080 135° Southeast 546 628 39,000  Level FlightAware
07:58AM 42.3100 18.6040 136° Southeast 548 631 39,000  Level FlightAware
07:58AM 42.2300 18.7130 135° Southeast 549 632 39,000  Level FlightAware
07:59AM 42.1280 18.8480 136° Southeast 549 632 39,000  Level FlightAware
08:00AM 42.0300 18.9770 136° Southeast 546 628 39,000  Level FlightAware
08:01AM 41.9710 19.0560 135° Southeast 545 627 39,000  Level FlightAware
08:01AM 41.9000 19.1500 135° Southeast 541 623 39,000  Level FlightAware
08:02AM 41.8150 19.2620 136° Southeast 536 617 39,000  Level FlightAware
08:03AM 41.7510 19.3420 137° Southeast 534 615 39,000  Level FlightAware
08:03AM 41.6800 19.4340 136° Southeast 532 612 39,000  Level FlightAware
08:04AM 41.6160 19.5150 137° Southeast 531 611 39,000  Level FlightAware
08:05AM 41.5310 19.6240 136° Southeast 529 609 39,000  Level FlightAware
08:06AM 41.4600 19.7310 132° Southeast 535 616 39,000  Level FlightAware
08:06AM 41.3960 19.8410 128° Southeast 533 613 39,000  Level FlightAware
08:07AM 41.3400 19.9430 126° Southeast 532 612 39,000  Level FlightAware
08:07AM 41.2850 20.0460 125° Southeast 536 617 39,000  Level FlightAware
08:08AM 41.2350 20.1550 121° Southeast 537 618 39,000  Level FlightAware
08:09AM 41.1810 20.2740 121° Southeast 540 621 39,000  Level FlightAware
08:09AM 41.1290 20.3840 122° Southeast 541 623 39,000  Level FlightAware
08:10AM 41.0700 20.5140 121° Southeast 542 624 39,000  Level FlightAware
08:11AM 41.0000 20.6650 122° Southeast 545 627 39,000  Level FlightAware
08:12AM 40.9530 20.7710 120° Southeast 545 627 39,000  Level FlightAware
08:12AM 40.9010 20.8850 121° Southeast 548 631 39,000  Level FlightAware
08:13AM 40.8430 21.0110 121° Southeast 548 631 39,000  Level FlightAware
08:14AM 40.7910 21.1220 122° Southeast 548 631 39,000  Level FlightAware
08:14AM 40.7450 21.2220 121° Southeast 550 633 39,000  Level FlightAware
08:15AM 40.6890 21.3390 122° Southeast 551 634 39,000  Level FlightAware
08:16AM 40.6360 21.4360 126° Southeast 546 628 39,000  Level FlightAware
08:16AM 40.5620 21.5430 132° Southeast 539 620 39,000  Level FlightAware
08:17AM 40.4920 21.6320 136° Southeast 538 619 39,000  Level FlightAware
08:18AM 40.4110 21.7340 136° Southeast 537 618 39,000  Level FlightAware
08:18AM 40.3430 21.8190 136° Southeast 536 617 39,000  Level FlightAware
08:19AM 40.2600 21.9230 136° Southeast 536 617 39,000  Level FlightAware
08:20AM 40.1880 22.0140 136° Southeast 533 613 39,000  Level FlightAware
08:21AM 40.1180 22.1010 136° Southeast 531 611 39,000  Level FlightAware
08:21AM 40.0530 22.1810 137° Southeast 531 611 39,000  Level FlightAware
08:22AM 39.9760 22.2780 136° Southeast 531 611 39,000  Level FlightAware
08:22AM 39.9080 22.3610 137° Southeast 529 609 39,000  Level FlightAware
08:23AM 39.8230 22.4670 136° Southeast 527 606 39,000  Level FlightAware
08:24AM 39.7540 22.5510 137° Southeast 524 603 39,000  Level FlightAware
08:25AM 39.6780 22.6440 137° Southeast 523 602 39,000  Level FlightAware
08:25AM 39.6010 22.7380 137° Southeast 520 598 39,000  Level FlightAware
08:26AM 39.5310 22.8230 137° Southeast 517 595 39,000  Level FlightAware
08:27AM 39.4770 22.8900 136° Southeast 517 595 39,000  Level FlightAware
08:27AM 39.3850 23.0010 137° Southeast 514 592 39,000  Level FlightAware
08:28AM 39.3110 23.0890 137° Southeast 512 589 39,000  Level FlightAware
08:29AM 39.2400 23.1740 137° Southeast 512 589 39,000  Level FlightAware
08:30AM 39.1730 23.2550 137° Southeast 511 588 39,000  Level FlightAware
08:30AM 39.0960 23.3480 137° Southeast 511 588 39,000  Level FlightAware
08:31AM 39.0250 23.4330 137° Southeast 505 581 39,000  Level FlightAware
08:32AM 38.9550 23.5140 138° Southeast 507 583 39,000  Level FlightAware
08:32AM 38.8840 23.5990 137° Southeast 508 585 39,000  Level FlightAware
08:33AM 38.8230 23.6740 136° Southeast 508 585 39,000  Level FlightAware
08:34AM 38.7710 23.7380 136° Southeast 508 585 39,000  Level FlightAware
08:34AM 38.6640 23.8600 138° Southeast 518 596 39,000  Level FlightAware
08:35AM 38.5950 23.9410 137° Southeast 519 597 39,000  Level FlightAware
08:36AM 38.5340 24.0110 138° Southeast 520 598 39,000  Level FlightAware
08:36AM 38.4490 24.1110 137° Southeast 522 601 39,000  Level FlightAware
08:37AM 38.3740 24.1980 138° Southeast 522 601 39,000  Level FlightAware
08:38AM 38.2710 24.3170 138° Southeast 520 598 39,000  Level FlightAware
08:39AM 38.2060 24.3930 137° Southeast 518 596 39,000 -60 Level FlightAware
08:40AM 38.0730 24.5530 137° Southeast 523 602 38,900  Descending FlightAware
08:41AM 38.0170 24.6420 129° Southeast 529 609 39,000 60 Climbing FlightAware
08:41AM 37.9480 24.7590 127° Southeast 529 609 39,000  Level FlightAware
08:42AM 37.8770 24.8800 127° Southeast 529 609 39,000  Level FlightAware
08:43AM 37.8200 24.9740 127° Southeast 529 609 39,000  Level FlightAware
08:43AM 37.7580 25.0780 127° Southeast 530 610 39,000  Level FlightAware
08:44AM 37.6890 25.1940 127° Southeast 531 611 39,000  Level FlightAware
08:45AM 37.6300 25.2920 127° Southeast 531 611 39,000  Level FlightAware
08:46AM 37.5640 25.4010 127° Southeast 533 613 39,000  Level FlightAware
08:46AM 37.5000 25.5060 128° Southeast 531 611 39,000  Level FlightAware
08:47AM 37.4470 25.5930 127° Southeast 533 613 39,000  Level FlightAware
08:48AM 37.3860 25.6930 127° Southeast 533 613 39,000  Level FlightAware
08:48AM 37.3200 25.8020 127° Southeast 532 612 39,000  Level FlightAware
08:49AM 37.2720 25.8800 128° Southeast 532 612 39,000  Level FlightAware
08:50AM 37.2090 25.9800 128° Southeast 529 609 39,000  Level FlightAware
08:50AM 37.1460 26.0840 127° Southeast 527 606 39,000  Level FlightAware
08:51AM 37.0860 26.1810 128° Southeast 526 605 39,000  Level FlightAware
08:52AM 37.0250 26.2790 128° Southeast 526 605 39,000  Level FlightAware
08:52AM 36.9560 26.3890 128° Southeast 523 602 39,000  Level FlightAware
08:53AM 36.8920 26.4940 127° Southeast 522 601 39,000  Level FlightAware
08:54AM 36.8450 26.5680 128° Southeast 520 598 39,000  Level FlightAware
08:54AM 36.7800 26.6720 128° Southeast 518 596 39,000  Level FlightAware
08:55AM 36.7210 26.7660 128° Southeast 517 595 39,000  Level FlightAware
08:56AM 36.6670 26.8500 129° Southeast 516 594 39,000  Level FlightAware
08:56AM 36.6030 26.9520 128° Southeast 515 593 39,000  Level FlightAware
08:57AM 36.5440 27.0460 128° Southeast 514 592 39,000  Level FlightAware
08:58AM 36.4930 27.1240 129° Southeast 514 592 39,000  Level FlightAware
08:58AM 36.4210 27.2380 128° Southeast 515 593 39,000  Level FlightAware
08:59AM 36.3710 27.3170 128° Southeast 515 593 39,000  Level FlightAware
09:00AM 36.3110 27.4130 128° Southeast 515 593 39,000  Level FlightAware
09:01AM 36.2660 27.4840 128° Southeast 515 593 39,000  Level FlightAware
09:01AM 36.2220 27.5550 128° Southeast 515 593 39,000  Level FlightAware
09:02AM 36.1220 27.7030 130° Southeast 516 594 39,000  Level FlightAware
09:02AM 36.0630 27.7950 128° Southeast 515 593 39,000  Level FlightAware
09:03AM 36.0030 27.8850 129° Southeast 515 593 39,000  Level FlightAware
09:04AM 35.9590 27.9570 127° Southeast 515 593 39,000  Level FlightAware
09:05AM 35.8990 28.0510 128° Southeast 515 593 39,000  Level FlightAware
09:05AM 35.8530 28.1240 128° Southeast 515 593 39,000  Level FlightAware
09:06AM 35.8080 28.1950 128° Southeast 515 593 39,000  Level FlightAware
09:07AM 35.6980 28.3510 131° Southeast 511 588 39,000  Level FlightAware
09:07AM 35.6330 28.4480 129° Southeast 511 588 39,000  Level FlightAware
09:08AM 35.5730 28.5380 129° Southeast 511 588 39,000  Level FlightAware
09:09AM 35.5120 28.6300 129° Southeast 511 588 39,000  Level FlightAware
09:09AM 35.4500 28.7250 129° Southeast 511 588 39,000  Level FlightAware
09:10AM 35.3860 28.8220 129° Southeast 511 588 39,000  Level FlightAware
09:11AM 35.3370 28.8950 129° Southeast 511 588 39,000  Level FlightAware
09:11AM 35.2570 29.0120 130° Southeast 507 583 39,000  Level FlightAware
09:12AM 35.1980 29.0990 130° Southeast 505 581 39,000  Level FlightAware
09:13AM 35.1350 29.1950 129° Southeast 505 581 39,000  Level FlightAware
09:14AM 35.0880 29.2650 129° Southeast 505 581 39,000  Level FlightAware
09:14AM 35.0280 29.3550 129° Southeast 505 581 39,000  Level FlightAware
09:15AM 34.9670 29.4470 129° Southeast 505 581 39,000  Level FlightAware
09:16AM 34.8780 29.5710 131° Southeast 39,000  Level FlightAware
09:17AM 34.7930 29.6980 129° Southeast 505 581 39,000  Level FlightAware
09:18AM 34.7330 29.7880 129° Southeast 505 581 39,000  Level FlightAware
09:18AM 34.6880 29.8560 129° Southeast 505 581 39,000  Level FlightAware
09:19AM 34.6280 29.9460 129° Southeast 505 581 39,000  Level FlightAware
09:20AM 34.5820 30.0150 129° Southeast 505 581 39,000  Level FlightAware
09:20AM 34.5220 30.1050 129° Southeast 505 581 39,000  Level FlightAware
09:21AM 34.4770 30.1730 129° Southeast 505 581 39,000  Level FlightAware
09:22AM 34.4320 30.2400 129° Southeast 505 581 39,000  Level FlightAware
09:22AM 34.3640 30.5010 107° East 507 583 39,000  Level FlightAware
09:23AM 34.3090 30.6130 121° Southeast 506 582 39,000  Level FlightAware
09:24AM 34.2680 30.6980 120° Southeast 506 582 39,000  Level FlightAware
09:24AM 34.2130 30.8100 121° Southeast 506 582 39,000  Level FlightAware
09:25AM 34.1650 30.9070 121° Southeast 505 581 39,000  Level FlightAware
09:26AM 34.0950 31.0490 121° Southeast 503 579 39,000  Level FlightAware
09:27AM 34.0410 31.1570 121° Southeast 499 574 39,000  Level FlightAware
09:27AM 33.9930 31.2550 121° Southeast 491 565 39,000  Level FlightAware
09:28AM 33.9390 31.3610 122° Southeast 491 565 39,000  Level FlightAware
09:29AM 33.8930 31.4530 121° Southeast 493 567 39,000  Level FlightAware
09:30AM 33.8450 31.5490 121° Southeast 488 562 39,000  Level FlightAware
09:30AM 33.7930 31.6520 121° Southeast 487 560 39,000  Level FlightAware
09:31AM 33.7510 31.7360 121° Southeast 487 560 39,000  Level FlightAware
09:32AM 33.7000 31.8370 121° Southeast 492 566 39,000  Level FlightAware
09:32AM 33.6530 31.9300 121° Southeast 492 566 39,000  Level FlightAware
09:33AM 33.6010 32.0300 122° Southeast 494 568 39,000  Level FlightAware
09:34AM 33.5430 32.1450 121° Southeast 494 568 39,000  Level FlightAware
09:35AM 33.4920 32.2450 121° Southeast 494 568 39,000 -600 Level FlightAware
09:35AM 33.4390 32.3500 121° Southeast 495 570 38,200 -600 Descending FlightAware
09:36AM 33.3990 32.4300 121° Southeast 495 570 38,200 -840 Level FlightAware
09:37AM 33.3320 32.5570 122° Southeast 498 573 36,900 -1,800 Descending FlightAware
09:37AM 33.2790 32.6580 122° Southeast 499 574 35,600 -2,220 Descending FlightAware
09:38AM 33.2400 32.7340 122° Southeast 489 563 34,400 -1,440 Descending FlightAware
09:39AM 33.1960 32.8200 121° Southeast 489 563 33,800 -420 Descending FlightAware
09:40AM 33.1490 32.9150 121° Southeast 489 563 33,800  Level FlightAware
09:40AM 33.1130 32.9860 121° Southeast 489 563 33,800 -4,440 Level FlightAware
09:41AM 33.0420 33.1130 124° Southeast 454 522 28,000 -4,140 Descending FlightAware
09:42AM 32.9840 33.2230 122° Southeast 443 510 27,100 -540 Descending FlightAware
09:43AM 32.9400 33.3070 122° Southeast 443 510 27,100 -1,800 Level FlightAware
09:43AM 32.8860 33.4130 121° Southeast 407 468 24,100 -3,360 Descending FlightAware
09:44AM 32.8390 33.4970 124° Southeast 390 449 22,000 -2,580 Descending FlightAware
09:45AM 32.8090 33.5550 122° Southeast 390 449 21,100 -1,800 Descending FlightAware
09:46AM 32.7580 33.6510 122° Southeast 388 447 19,500 -1,740 Descending FlightAware
09:46AM 32.7170 33.7290 122° Southeast 387 445 18,300 -1,740 Descending FlightAware
09:47AM 32.6770 33.8020 123° Southeast 385 443 17,100 -1,800 Descending FlightAware
09:48AM 32.6370 33.8770 122° Southeast 385 443 15,900 -1,740 Descending FlightAware
09:48AM 32.5930 33.9590 122° Southeast 383 441 14,600 -1,680 Descending FlightAware
09:49AM 32.5650 34.0120 122° Southeast 382 440 13,800 -1,680 Descending FlightAware
09:50AM 32.5220 34.0920 123° Southeast 375 432 12,500 -1,680 Descending FlightAware
09:50AM 32.4820 34.1620 124° Southeast 359 413 11,400 -1,500 Descending FlightAware
09:51AM 32.4400 34.2140 134° Southeast 342 394 10,600 -720 Descending FlightAware
09:52AM 32.4040 34.2570 135° Southeast 336 387 10,500 -120 Descending FlightAware
09:52AM 32.3590 34.3100 135° Southeast 336 387 10,500 -1,440 Level FlightAware
09:53AM 32.3190 34.3550 136° Southeast 294 338 8,600 -2,460 Descending FlightAware
09:53AM 32.2910 34.3890 134° Southeast 294 338 7,900 -720 Descending FlightAware
09:54AM 32.2560 34.4300 135° Southeast 294 338 7,800 -660 Descending FlightAware
09:57AM 32.0606 34.7569 115° Southeast  Level FlightAware Approximate
09:58AM 32.0000 34.8667 125° Southeast  Level FlightAware Approximate
09:59AM 32.0095 34.8769 125° Southeast  Level Estimated
10:00AM 32.0095 34.8769 125° Southeast  Level Estimated
10:01AM 32.0095 34.8769 125° Southeast  Level Estimated
10:01AM 31.9770 34.9140 125° Southeast 204 235 2,900  Level FlightAware
10:02AM 32.0095 34.8769 125° Southeast  Level Estimated
10:02AM 31.9810 34.9400 80° East 204 235 2,900  Level FlightAware
10:05AM 32.0095 34.8769 298° West  Level Estimated